Regional Weather Roundup
Issued by NWS

Home | Current Version | Previous Version | Graphics & Text | Print | Product List | Glossary On
Versions: 1 2 3 4 5 6 7 8 9 10 11 12 13 14 15 16 17 18 19 20 21 22 23 24 25 26 27 28 29 30 31 32 33 34 35 36 37 38 39 40 41 42 43 44 45 46 47 48 49 50
000
ASUS43 KIND 172209
RWRIN

WEATHER ROUNDUP FOR INDIANA
NATIONAL WEATHER SERVICE INDIANAPOLIS IN
600 PM EDT TUE OCT 17 2017

NOTE: "FAIR" INDICATES FEW OR NO CLOUDS BELOW 12,000 FEET WITH NO
SIGNIFICANT WEATHER AND/OR OBSTRUCTIONS TO VISIBILITY.

* - STATION DOES NOT REPORT WEATHER SUCH AS PRECIPITATION OR FOG.

+ - STATION NOT QUALITY CONTROLLED BY THE NATIONAL WEATHER SERVICE.
    USE DATA WITH CAUTION...ESPECIALLY DEWPOINT AND RELATIVE
    HUMIDITY OBSERVATIONS.

INZ001>003-010>013-019-020-172300-
NORTHWEST INDIANA

CITY           SKY/WX    TMP DP  RH WIND       PRES   REMARKS
GARY /AIRPORT/ MOSUNNY   70  34  26 SW7G28    30.14F
KNOX *+        SUNNY     68  37  32 SW12G21   30.16F
LA PORTE +     SUNNY     66  41  40 SW9G17    30.16S
MICHIGAN CITY+ SUNNY     66  41  39 SW10G16   30.15S
MONTICELLO +   SUNNY     66  37  34 SW10      30.19F
RENSSELAER +   SUNNY     68  21  17 SW13      30.18F
VALPARAISO     SUNNY     69  40  34 SW13      30.16S

$$

LMZ046-743>745-172300-
SOUTHERN LAKE MICHIGAN

STATION/POSITION TIME  TEMP    WIND        PRES    WAVE
                       AIR SEA DIR/SP/G            HT
                 (UTC) (F)     (DEG/KT/KT) (MB)    (FT)
BURNS HARBOR     2140   69     220/ 16/ 21 1021.0S
MICHIGAN CITY    2140   68     210/ 15/ 17   N/A
5NW MICH CITY    2200   63 58  220/ 10/ 14   N/A     2

$$

INZ004-005-014>016-021>024-172300-
NORTH CENTRAL INDIANA

CITY           SKY/WX    TMP DP  RH WIND       PRES   REMARKS
ELKHART        CLEAR     66  39  37 SW12G17   30.16F
GOSHEN         CLEAR     65  38  36 SW14      30.17F
LOGANSPORT +   SUNNY     63  37  39 SW10      30.21S
PERU/GRISSOM   SUNNY     65  40  41 SW9       30.20F
SOUTH BEND     CLEAR     66  41  40 SW12G20   30.16F
WARSAW +       CLEAR     64  41  42 SW7       30.19S

$$

INZ006>009-017-018-025>027-172300-
NORTHEAST INDIANA

CITY           SKY/WX    TMP DP  RH WIND       PRES   REMARKS
AUBURN +       CLEAR     64  36  34 SW8G17    30.19F
FORT WAYNE     PTCLDY    66  37  34 SW14      30.20F
HUNTINGTON +   CLEAR     65  36  34 SW6       30.20F
KENDALLVILLE + CLEAR     65  40  38 SW13G20   30.19S

$$

INZ028-029-035-036-043>045-051>053-172300-
WEST CENTRAL INDIANA

CITY           SKY/WX    TMP DP  RH WIND       PRES   REMARKS
CRAWFORDSVL +  SUNNY     63  39  42 S9        30.22F
GREENCASTLE +  SUNNY     63  37  39 S5        30.24S
LAFAYETTE      NOT AVBL
TERRE HAUTE    SUNNY     65  39  38 S7        30.23F

$$

INZ030>032-037>040-046>048-054>057-064-065-172300-
CENTRAL INDIANA

CITY           SKY/WX    TMP DP  RH WIND       PRES   REMARKS
CP ATTERBURY + SUNNY     64  36  34 SW5       30.24F
COLUMBUS       SUNNY     64  30  27 SW8       30.25F
FISHERS *+     SUNNY     64  43  45 SW6       30.23F
FRANKFORT +    SUNNY     67  40  37 SW8       30.24S
GREENWOOD *+   SUNNY     70  39  32 SW5       30.24F
INDIANAPOLIS   MOSUNNY   64  40  41 SW10      30.23F
-EAGLE CREEK   SUNNY     65  38  36 S10       30.22F
KOKOMO +       SUNNY     66  40  38 W12       30.22F
MARION +       CLEAR     64  39  39 SW13      30.22F HAZE
MT COMFORT *+  SUNNY     64  45  48 SW6       30.24F
SHELBYVILLE    SUNNY     66  36  32 S9        30.23F
ZIONSVILLE +   SUNNY     64  39  40 SW9       30.24S

$$

INZ033-034-041-042-049-050-058-059-172300-
EAST CENTRAL INDIANA

CITY           SKY/WX    TMP DP  RH WIND       PRES   REMARKS
MUNCIE         CLEAR     66  37  34 SW8       30.23F
RICHMOND +     FLURRIES  63  36  36 SW6       30.26S

$$

INZ060-061-067>069-081>083-085>088-172300-
SOUTHWEST INDIANA

CITY           SKY/WX    TMP DP  RH WIND       PRES   REMARKS
EVANSVILLE     SUNNY     64  41  42 CALM      30.25F
HUNTINGBURG +  MOSUNNY   65  42  43 S5        30.26F
WASHINGTON +   CLOUDY    66  34  29 S7        30.24F

$$

INZ062-063-066-070>080-084-089>092-172300-
SOUTH CENTRAL AND SOUTHEAST INDIANA

CITY           SKY/WX    TMP DP  RH WIND       PRES   REMARKS
BEDFORD +      SUNNY     64  37  36 SW3       30.24F
BLOOMINGTON    SUNNY     63  37  38 SW7       30.24F
MADISON *+     CLOUDY    64  36  34 SW5       30.28F
NORTH VERNON + SUNNY     63  39  42 S6        30.26F
SEYMOUR +      SUNNY     66  39  37 S7        30.25F

$$





USA.gov is the U.S. government's official web portal to all federal, state and local government web resources and services.